Weather History for Tin City, AK

Change the Weather History Date:

Sunday, February 10, 2013

  Actual Average Record
Temperature  
Mean Temperature 4 °F -  
Max Temperature 14 °F 7 °F 35 °F (2012)
Min Temperature -7 °F -2 °F -26 °F (2002)
Degree Days  
Heating Degree Days 62    
Moisture  
Dew Point -1 °F    
Average Humidity 87    
Maximum Humidity 100    
Minimum Humidity 78    
Precipitation  
Precipitation 0.00 in - - ()
Sea Level Pressure  
Sea Level Pressure 29.02 in    
Wind  
Wind Speed 41 mph (NNE)    
Max Wind Speed 52 mph    
Max Gust Speed 58 mph    
Visibility 1 miles    
Events Snow    
Averages and records for this station are not official NWS values.
T = Trace of Precipitation, MM = Missing Value Source: NWS Daily Summary

Daily Weather History Graph

Daily Weather History Graph

Search for Another Location

Airport:

Trip Planner

Search our weather history database for the weather conditions in past years. The results will help you decide how hot, cold, wet, or windy it might be!

Date:

Astronomy

Feb. 10, 2013 Rise Set
Actual Time 10:30 AM AKST 6:22 PM AKST
Civil Twilight 9:34 AM AKST 7:19 PM AKST
Nautical Twilight 8:34 AM AKST 8:19 PM AKST
Astronomical Twilight 7:36 AM AKST 9:17 PM AKST
Moon 9:50 AM AKST (2/10) 8:16 PM AKST (2/10)
Length of Visible Light 9h 45m
Length of Day
7h 52m
New Moon, 0% of the Moon is Illuminated
Feb 10
New Moon
Feb 17
First Quarter
Feb 25
Full
Mar 4
Last Quarter
Mar 11
New

Hourly Weather History & Observations

Time (AKST) Temp. Windchill Dew Point Humidity Pressure Visibility Wind Dir Wind Speed Gust Speed Precip Events Conditions
12:55 AM -7.2 °F -41.0 °F -10.8 °F 84% 29.00 in 0.2 mi NNE 48.3 mph 55.2 mph N/A Snow Heavy Snow
1:55 AM -6.7 °F -40.8 °F -10.1 °F 85% 28.98 in 0.2 mi NNE 50.6 mph 57.5 mph N/A Snow Heavy Snow
3:55 AM -6.7 °F -40.8 °F -10.1 °F 85% 28.95 in 0.2 mi NNE 50.6 mph 56.4 mph N/A Snow Heavy Snow
4:55 AM -6.2 °F -39.5 °F -9.6 °F 85% 28.95 in 0.2 mi NNE 48.3 mph 55.2 mph N/A Snow Heavy Snow
5:55 AM -5.6 °F -39.2 °F -9.0 °F 85% 28.94 in 0.2 mi NNE 50.6 mph 54.1 mph N/A Snow Heavy Snow
6:55 AM -4.9 °F -38.5 °F -8.1 °F 86% 28.92 in 0.2 mi NNE 51.8 mph 55.2 mph N/A Snow Heavy Snow
7:55 AM -3.8 °F -35.6 °F -7.1 °F 86% 28.93 in 0.2 mi NNE 46.0 mph - N/A Snow Heavy Snow
8:55 AM -2.6 °F -34.1 °F -5.6 °F 87% 28.92 in 0.2 mi NNE 47.2 mph 51.8 mph N/A Snow Heavy Snow
9:55 AM -1.1 °F -31.8 °F -4.2 °F 87% 28.92 in 0.2 mi NNE 46.0 mph 51.8 mph N/A Snow Snow
10:15 AM -0.4 °F -31.3 °F -4.0 °F 85% 28.91 in 0.5 mi NNE 48.3 mph - N/A Snow Light Snow
10:35 AM -0.4 °F -30.2 °F -2.2 °F 92% 28.92 in 0.2 mi NNE 43.7 mph 50.6 mph N/A Snow Heavy Snow
10:55 AM 0.7 °F -29.3 °F -2.0 °F 88% 28.91 in 0.2 mi NNE 46.0 mph 52.9 mph N/A Snow Heavy Snow
11:55 AM 1.8 °F -25.8 °F -0.6 °F 90% 28.95 in 0.2 mi NNE 38.0 mph - N/A Snow Heavy Snow
12:55 PM 2.3 °F -25.0 °F 0.1 °F 91% 28.95 in 0.2 mi NNE 38.0 mph - N/A Snow Heavy Snow
1:55 PM 2.3 °F -24.7 °F -0.2 °F 89% 28.98 in 0.2 mi NNE 36.8 mph - N/A Snow Snow
2:55 PM 3.2 °F -23.2 °F 0.9 °F 90% 28.97 in 0.2 mi NNE 35.7 mph 42.6 mph N/A Snow Heavy Snow
3:55 PM 3.7 °F -22.4 °F 1.2 °F 89% 28.98 in 0.5 mi NNE 35.7 mph - N/A Snow Light Snow
4:55 PM 3.9 °F -22.2 °F 1.0 °F 88% 28.99 in 0.5 mi NNE 35.7 mph - N/A Snow Light Snow
5:40 PM 3.2 °F -23.2 °F -0.4 °F 85% 29.00 in 0.8 mi NNE 35.7 mph - N/A Snow Light Snow
5:55 PM 3.7 °F -22.7 °F 0.1 °F 85% 29.00 in 0.8 mi North 36.8 mph - N/A Snow Light Snow
6:30 PM 3.2 °F -22.5 °F -0.4 °F 85% 29.02 in 1.0 mi NNE 33.4 mph - N/A Snow Light Snow
6:50 PM 5.0 °F -20.1 °F -0.4 °F 78% 29.03 in 0.8 mi NNE 33.4 mph - N/A Snow Light Snow
6:55 PM 3.7 °F -21.8 °F 0.1 °F 85% 29.03 in 0.8 mi North 33.4 mph - N/A Snow Light Snow
7:15 PM 3.2 °F -21.5 °F -0.4 °F 85% 29.03 in 1.2 mi North 29.9 mph - N/A Snow Light Snow
7:35 PM 3.2 °F -21.8 °F -0.4 °F 85% 29.04 in 0.8 mi NNE 31.1 mph - N/A Snow Light Snow
7:55 PM 3.7 °F -20.0 °F 0.7 °F 87% 29.06 in 1.0 mi North 27.6 mph - N/A Snow Light Snow
8:10 PM 5.0 °F -18.7 °F -0.4 °F 78% 29.06 in 1.2 mi NNE 28.8 mph - N/A Snow Light Snow
8:30 PM 5.0 °F -17.9 °F 1.4 °F 85% 29.07 in 2.0 mi NNE 26.5 mph - N/A Snow Light Snow
8:50 PM 5.0 °F -17.5 °F 1.4 °F 85% 29.08 in 1.5 mi NNE 25.3 mph - N/A Snow Light Snow
8:55 PM 4.6 °F -18.4 °F 0.9 °F 84% 29.08 in 1.5 mi NNE 26.5 mph - N/A Snow Light Snow
9:45 PM 5.0 °F -12.3 °F 3.2 °F 92% 29.13 in 0.8 mi NE 13.8 mph 20.7 mph N/A Snow Light Snow
9:55 PM 6.6 °F -11.5 °F 3.7 °F 88% 29.13 in 0.5 mi East 16.1 mph 27.6 mph N/A Snow Snow
10:05 PM 8.6 °F -13.1 °F 8.6 °F 100% 29.13 in 0.2 mi SE 26.5 mph 34.5 mph N/A Snow Snow
10:55 PM 14.0 °F -6.5 °F 12.6 °F 94% 29.16 in 0.2 mi SSW 28.8 mph 39.1 mph N/A Snow Heavy Snow
11:40 PM 6.8 °F -17.6 °F 5.0 °F 92% 29.23 in 0.5 mi South 33.4 mph 39.1 mph N/A Snow Snow
11:55 PM 5.4 °F -20.5 °F 1.8 °F 85% 29.24 in 0.2 mi SSW 36.8 mph 41.4 mph N/A Snow Snow